Location: Betzi
(47.2343°N, 9.5260°E)
Time: 22:13:17
(UTC+00:00)

Cosmos 1461 - Pass Details

Date: 27 May 2022
Orbit: 516 x 638 km, 65.0° (Epoch: 29 June)

Event Time Altitude Azimuth Distance (km) Brightness Sun altitude
Rises 00:06:34 0° 313° (NW) 2,745 6.8 -20.7°
Reaches altitude 10° 00:09:01 10° 300° (WNW) 1,868 5.7 -20.6°
Enters shadow 00:11:35 23° 264° (W) 1,237 4.4 -20.5°
